STARLINK-30502, 57973

Orbit data source: Space-Track

STARLINK-30502, 57973 is a payload satellite owned by SpaceX/Seattle (US) in LEO that was launched on Sat, 30 Sep 2023 UTC via an FALCON 9 launch vehicle from the Air Force Eastern Test Range (AFETR). Payload-class satellites include a variety of spacecraft equipped with specific instruments for various scientific and technological missions. These include communications satellites like Starlink; space stations such as the ISS; scientific satellites like the Hubble; Earth observation satellites from companies like Planet Labs, Umbra, and HawkEye 360; GPS; miniature CubeSats for education and research; and military/defense satellites.

Loading next visibility...
Identifier
57973, 2023-151K
Orbit
LEO
Country
Flag of USUS
Related business
Manufacturer
SpaceX/Seattle
Mission
Operational Commercial Communications
Bus & Motor
STARLINK V2M, Unknown motor
Mass
730 kg wet, ~700 kg dry
Launch date (UTC)
2023-09-30 (3 years ago)
Launch vehicle
FALCON 9
Launch site
Air Force Eastern Test Range (AFETR)
Object type
Payload
Rocket body
Debris
Shape & HBR
Box + 2 Pan, 17.7 m
Radar Cross Section
33.884 m², Large (>1 m²)

Expand to show TLE details & history
Last TLE update: 18 hours ago

TLE from 18 hours ago
0 STARLINK-30502
1 57973U 23151K   26236.64285304  .00000240  00000-0  18233-4 0  9991
2 57973  43.0031 107.3998 0001429 270.9694  89.0994 15.27578409161458
Epoch: 2026-08-24T15:25Z
TLE epoch observation values (Epoch: 2026-08-24T15:25:42.502Z)
Latitude
-0.00002°
Longitude
-96.94893°
Altitude
482.814 km
Speed
7.626 km/s
True Right ascension
07h 09m 35s
True Declination
0° 00' 00"
Sunlit
Object was in daylight at epoch
Visualization orbit readout
Latitude
Unknown
Longitude
Unknown
Altitude
Unknown
Speed
Unknown
Apparent Right ascension
Unknown
Apparent Declination
Unknown
Sunlit
N/A
Visualization observer readout
Local Sidereal Time
00:47:36
Azimuth
Unknown
Elevation
Unknown
Doppler factor
Unknown
Orbital elements
Apogee altitude
485.979 km
Perigee altitude
484.018 km
Semi-major axis
6,863.136 km
Eccentricity
0.00014
Inclination
43.0031°
RAAN
107.3998°
Arg. of periapsis
270.9694°
True anomaly
89.11577°
Mean anomaly
89.0994°
Eccentric anomaly
89.10759°
Mean motion
3.81733 °/min
Orbital period
94.31 mins
BSTAR
0.000018233
Loading maneuver chart data...
Computing Atmospheric mass density...
Loading historical data...
Loading historical data...
Loading historical data...
Loading historical data...
Loading historical data...
Loading historical data...
Loading historical data...

Documentation

Showing up to 5 results
|